Weather History for KJVL - January, 2013

Change the Weather History Date:

Wednesday, January 9, 2013

  Actual Average Record
Temperature  
Mean Temperature 32 °F -  
Max Temperature 39 °F 30 °F 55 °F (2002)
Min Temperature 26 °F 17 °F -19 °F (1988)
Degree Days  
Heating Degree Days 32    
Moisture  
Dew Point 26 °F    
Average Humidity 76    
Maximum Humidity 87    
Minimum Humidity 56    
Precipitation  
Precipitation 0.00 in - - ()
Sea Level Pressure  
Sea Level Pressure 30.20 in    
Wind  
Wind Speed 11 mph (WSW)    
Max Wind Speed 22 mph    
Max Gust Speed 31 mph    
Visibility 10 miles    
Events      
Averages and records for this station are not official NWS values.
T = Trace of Precipitation, MM = Missing Value Source: NWS Daily Summary

Daily Weather History Graph

Daily Weather History Graph

Search for Another Location

Airport or City:

Trip Planner

Search our weather history database for the weather conditions in past years. The results will help you decide how hot, cold, wet, or windy it might be!

Date:

Astronomy

Jan. 09, 2013 Rise Set
Actual Time 7:25 AM CST 4:41 PM CST
Civil Twilight 6:54 AM CST 5:13 PM CST
Nautical Twilight 6:18 AM CST 5:48 PM CST
Astronomical Twilight 5:44 AM CST 6:22 PM CST
Moon 5:04 AM CST (1/9) 2:43 PM CST (1/9)
Length of Visible Light 10h 19m
Length of Day
9h 16m
Waning Crescent, 6% of the Moon is Illuminated
Jan 9
Waning Crescent
Jan 11
New
Jan 18
First Quarter
Jan 26
Full
Feb 3
Last Quarter

Hourly Weather History & Observations

Time (CST) Temp. Windchill Dew Point Humidity Pressure Visibility Wind Dir Wind Speed Gust Speed Precip Events Conditions
12:15 AM 39.2 °F 32.0 °F 30.2 °F 70% 29.95 in 10.0 mi SW 11.5 mph - N/A   Clear
12:35 AM 39.2 °F 30.8 °F 30.2 °F 70% 29.95 in 10.0 mi SW 15.0 mph - N/A   Clear
12:55 AM 39.2 °F 31.2 °F 30.2 °F 70% 29.95 in 10.0 mi SW 13.8 mph 21.9 mph N/A   Clear
1:15 AM 39.2 °F 30.5 °F 30.2 °F 70% 29.95 in 10.0 mi SW 16.1 mph - N/A   Scattered Clouds
1:35 AM 37.4 °F 30.8 °F 30.2 °F 75% 29.96 in 10.0 mi WSW 9.2 mph 21.9 mph N/A   Mostly Cloudy
1:55 AM 37.4 °F 28.9 °F 30.2 °F 75% 29.97 in 10.0 mi WSW 13.8 mph 19.6 mph N/A   Overcast
2:15 AM 37.4 °F 28.5 °F 30.2 °F 75% 29.98 in 10.0 mi WSW 15.0 mph 18.4 mph N/A   Scattered Clouds
2:35 AM 37.4 °F 29.3 °F 30.2 °F 75% 29.99 in 10.0 mi WSW 12.7 mph 19.6 mph N/A   Clear
2:55 AM 37.4 °F 29.8 °F 30.2 °F 75% 29.99 in 10.0 mi WSW 11.5 mph 18.4 mph N/A   Clear
3:15 AM 35.6 °F 25.9 °F 30.2 °F 81% 29.99 in 10.0 mi WSW 16.1 mph 19.6 mph N/A   Clear
3:35 AM 35.6 °F 27.5 °F 30.2 °F 81% 30.01 in 10.0 mi WSW 11.5 mph 17.3 mph N/A   Clear
3:55 AM 35.6 °F 28.0 °F 30.2 °F 81% 30.03 in 10.0 mi West 10.4 mph 19.6 mph N/A   Clear
4:15 AM 33.8 °F 25.3 °F 30.2 °F 87% 30.02 in 10.0 mi WSW 11.5 mph 16.1 mph N/A   Clear
4:35 AM 33.8 °F 23.9 °F 28.4 °F 81% 30.04 in 10.0 mi WSW 15.0 mph - N/A   Clear
5:45 AM 33.8 °F 25.8 °F 26.6 °F 75% 30.09 in 10.0 mi West 10.4 mph - N/A   Clear
6:45 AM 32.0 °F 24.2 °F 26.6 °F 80% 30.11 in 10.0 mi WSW 9.2 mph - N/A   Clear
7:45 AM 32.0 °F 23.0 °F 26.6 °F 80% 30.14 in 10.0 mi West 11.5 mph - N/A   Clear
8:45 AM 35.6 °F 27.5 °F 26.6 °F 70% 30.15 in 10.0 mi WSW 11.5 mph - N/A   Clear
10:45 AM 39.2 °F 30.8 °F 26.6 °F 61% 30.20 in 10.0 mi WSW 15.0 mph 20.7 mph N/A   Clear
11:45 AM 39.2 °F 29.6 °F 24.8 °F 56% 30.24 in 10.0 mi WSW 19.6 mph 26.5 mph N/A   Clear
12:45 PM 39.2 °F 29.0 °F 28.4 °F 65% 30.27 in 10.0 mi WSW 21.9 mph 31.1 mph N/A   Clear
3:45 PM 39.2 °F 30.5 °F 26.6 °F 61% 30.34 in 10.0 mi West 16.1 mph 21.9 mph N/A   Clear
5:45 PM 33.8 °F 25.8 °F 24.8 °F 70% 30.39 in 10.0 mi West 10.4 mph - N/A   Clear
6:45 PM 32.0 °F 24.8 °F 23.0 °F 69% 30.41 in 10.0 mi SW 8.1 mph - N/A   Clear
8:35 PM 30.2 °F 26.7 °F 23.0 °F 75% 30.43 in 10.0 mi SSW 3.5 mph - N/A   Clear
8:45 PM 26.6 °F - 21.2 °F 80% 30.42 in 10.0 mi Calm Calm - N/A   Clear
8:55 PM 28.4 °F - 23.0 °F 80% 30.43 in 10.0 mi Calm Calm - N/A   Clear
9:15 PM 26.6 °F - 23.0 °F 86% 30.43 in 10.0 mi Calm Calm - N/A   Clear
9:35 PM 28.4 °F - 23.0 °F 80% 30.41 in 10.0 mi Calm Calm - N/A   Clear
9:55 PM 26.6 °F - 23.0 °F 86% 30.41 in 10.0 mi Calm Calm - N/A   Clear
10:15 PM 26.6 °F - 21.2 °F 80% 30.42 in 10.0 mi Calm Calm - N/A   Clear
10:35 PM 28.4 °F - 23.0 °F 80% 30.42 in 10.0 mi Calm Calm - N/A   Clear
10:55 PM 26.6 °F 22.6 °F 21.2 °F 80% 30.43 in 10.0 mi SSW 3.5 mph - N/A   Clear
11:15 PM 26.6 °F 22.6 °F 23.0 °F 86% 30.44 in 10.0 mi SSW 3.5 mph - N/A   Clear
11:35 PM 28.4 °F 24.6 °F 23.0 °F 80% 30.47 in 10.0 mi SSW 3.5 mph - N/A   Clear
11:55 PM 28.4 °F 24.6 °F 23.0 °F 80% 30.46 in 10.0 mi SW 3.5 mph - N/A   Clear